Regional Weather Roundup
Issued by NWS Charleston, WV

Home | Current Version | Previous Version | Graphics & Text | Print | Product List | Glossary On
Versions: 1 2 3 4 5 6 7 8 9 10 11 12 13 14 15 16 17 18 19 20 21 22 23 24 25 26 27 28 29 30 31 32 33 34 35 36 37 38 39 40 41 42 43 44 45 46 47 48
000
ASUS41 KRLX 181610
RWRRLX
West Virginia Regional Weather Roundup
National Weather Service Charleston WV
1100 AM EST SAT NOV 18 2017

Note: "fair" indicates few or no clouds below 12,000 feet with no
significant weather and/or obstructions to visibility.

WVZ003-181700-
Northern Panhandle of West Virginia

CITY           SKY/WX    TMP DP  RH WIND       PRES   REMARKS
WHEELING       LGT RAIN  46  42  86 SE7       29.60F
$$

WVZ009-181700-
Northwest West Virginia

CITY           SKY/WX    TMP DP  RH WIND       PRES   REMARKS
PARKERSBURG    CLOUDY    56  41  57 S6        29.60F
$$

WVZ006-181700-
Western West Virginia

CITY           SKY/WX    TMP DP  RH WIND       PRES   REMARKS
HUNTINGTON     LGT RAIN  65  44  46 SW17G30   29.59F
$$

WVZ015-181700-
West Central West Virginia

CITY           SKY/WX    TMP DP  RH WIND       PRES   REMARKS
CHARLESTON     CLOUDY    66  40  38 SW14G30   29.62F
$$

WVZ022-031-181700-
North Central West Virginia

CITY           SKY/WX    TMP DP  RH WIND       PRES   REMARKS
CLARKSBURG     CLOUDY    52  44  74 CALM      29.62F
MORGANTOWN     CLOUDY    51  43  74 S5        29.62F
$$

WVZ025-035-042-045-181700-
Southern West Virginia

CITY           SKY/WX    TMP DP  RH WIND       PRES   REMARKS
BECKLEY        MOSUNNY   60  37  42 SW15G25   29.73F
LOGAN          CLOUDY    61  39  44 S12G24    29.69S
BLUEFIELD      SUNNY     59  34  39 W18G28    29.78F
LEWISBURG      MOSUNNY   49  32  51 CALM      29.77F
$$

WVZ047-181700-
Northern Mountains of West Virginia

CITY           SKY/WX    TMP DP  RH WIND       PRES   REMARKS
ELKINS         CLOUDY    64  40  41 SW9       29.65F
$$

WVZ052-181700-
Eastern Panhandle of West Virginia

CITY           SKY/WX    TMP DP  RH WIND       PRES   REMARKS
MARTINSBURG    CLOUDY    38  35  89 N6        29.75F
PETERSBURG     CLOUDY    41  30  65 N9        29.71S
$$




USA.gov is the U.S. government's official web portal to all federal, state and local government web resources and services.